Notices

What's New in latest Release from April 7th, 2021:

- Updated Glossary, including Speed of Maximum Gust, and Total Hourly Precipitation

- Updated national and regional climate services offices contacts and prices information

- Addition of station inventory lists for 1981-2010, 1971-2000, and 1961-1990 Normals.

If you haven't already, please take our survey and provide feedback about our website: https://eccc.sondage-survey.ca/f/LanguageSelection.aspx?s=442ca660-fcf1-47c0-95a9-59707d6fd709

Hourly Data Report for September 24, 2017

VICTORIA UNIVERSITY CS
BRITISH COLUMBIA

48°27'25.200" N
123°18'16.600" W
60.10 m
1018598
71783
WYJ

Download Data

Hourly Data (September 2017)
Hourly Data Report for September 24, 2017
TIME
LST
Temp Definition
°C
Dew Point Definition
°C
Rel Hum Definition
%
Precip. Amount Definition
mm

Wind Dir Definition
10's deg

Wind Spd Definition
km/h
Visibility Definition
km
Stn Press Definition
kPa
Hmdx Definition


Wind Chill Definition


Weather Definition


00:00 9.4 7.8 90 0.0 28 1   101.27     LegendNANA
01:00 9.6 7.9 89 0.0 32 5   101.30     LegendNANA
02:00 9.3 7.3 87 0.0 16 1   101.31     LegendNANA
03:00 9.0 7.9 93 0.0 28 1   101.34     LegendNANA
04:00 9.9 8.2 89 0.0   0   101.31     LegendNANA
05:00 9.8 8.3 90 0.0   0   101.31     LegendNANA
06:00 10.0 8.5 91 0.0 0 1   101.35     LegendNANA
07:00 11.2 9.4 89 0.0 11 2   101.35     LegendNANA
08:00 11.7 9.8 88 0.0 16 1   101.36     LegendNANA
09:00 11.6 9.9 90 0.0 16 4   101.38     LegendNANA
10:00 13.3 9.8 79 0.0 10 4   101.36     LegendNANA
11:00 15.8 9.6 67 0.0 11 3   101.32     LegendNANA
12:00 16.1 10.0 67 0.0 10 3   101.31     LegendNANA
13:00 16.1 10.2 68 0.0 16 6   101.29     LegendNANA
14:00 14.5 10.1 75 0.0 9 6   101.25     LegendNANA
15:00 15.8 10.0 69 0.0 16 5   101.19     LegendNANA
16:00 14.4 10.8 79 0.0 10 3   101.13     LegendNANA
17:00 12.9 10.2 83 0.0 7 2   101.10     LegendNANA
18:00 12.9 10.5 85 0.0   0   101.09     LegendNANA
19:00 12.2 10.3 88 0.0   0   101.09     LegendNANA
20:00 12.2 10.4 89 0.0 16 2   101.13     LegendNANA
21:00 11.8 10.2 90 0.0 0 1   101.09     LegendNANA
22:00 11.7 10.1 90 0.0 0 1   101.09     LegendNANA
23:00 12.4 10.8 90 0.0 23 1   101.08     LegendNANA

Notes on Data Quality.

Legend

  • E = Estimated
  • M = Missing
  • NA = Not Available*
  • [empty] = Indicates an unobserved value
Date modified: